| time (UTC) | temp F | wind direction | speed knots | gust knots | rain 1hr in | rain 24hr in | rain mn in | humidity % | barometer mb |
| 20260905005320 | 90 | 146 | 2.6 | 4.3 | 0.00 | 0.00 | 0.00 | 71 | 1014.1 |
| 20260905004321 | 90 | 133 | 1.7 | 5.2 | 0.00 | 0.00 | 0.00 | 71 | 1014.2 |
| 20260905003318 | 90 | 178 | 2.6 | 4.3 | 0.00 | 0.00 | 0.00 | 71 | 1014.3 |
| 20260905002312 | 91 | 197 | 2.6 | 6.1 | 0.00 | 0.00 | 0.00 | 71 | 1014.1 |
| 20260905001309 | 91 | 164 | 2.6 | 5.2 | 0.00 | 0.00 | 0.00 | 70 | 1014.3 |
| 20260905000333 | 91 | 211 | 2.6 | 3.5 | 0.00 | 0.00 | 0.00 | 70 | 1014.3 |
| 20260904235327 | 92 | 147 | 1.7 | 3.5 | 0.00 | 0.00 | 0.00 | 69 | 1014.1 |
| 20260904234330 | 92 | 202 | 1.7 | 4.3 | 0.00 | 0.00 | 0.00 | 68 | 1014.3 |
| 20260904233323 | 93 | 221 | 1.7 | 2.6 | 0.00 | 0.00 | 0.00 | 68 | 1014.2 |
| 20260904232319 | 93 | 171 | 1.7 | 3.5 | 0.00 | 0.00 | 0.00 | 67 | 1013.9 |
| 20260904231322 | 94 | 125 | 2.6 | 4.3 | 0.00 | 0.00 | 0.00 | 66 | 1013.8 |
| 20260904230322 | 94 | 217 | 2.6 | 6.1 | 0.00 | 0.00 | 0.00 | 65 | 1013.9 |
| 20260904225346 | 95 | 202 | 1.7 | 7.0 | 0.00 | 0.00 | 0.00 | 64 | 1014.0 |
| 20260904224341 | 95 | 159 | 2.6 | 7.0 | 0.00 | 0.00 | 0.00 | 63 | 1013.9 |
| 20260904223323 | 95 | 213 | 1.7 | 5.2 | 0.00 | 0.00 | 0.00 | 63 | 1014.0 |
| 20260904222315 | 96 | 177 | 2.6 | 7.0 | 0.00 | 0.00 | 0.00 | 62 | 1014.0 |
| 20260904221309 | 96 | 196 | 2.6 | 6.1 | 0.00 | 0.00 | 0.00 | 62 | 1014.1 |
| 20260904220332 | 96 | 240 | 4.3 | 7.8 | 0.00 | 0.00 | 0.00 | 61 | 1014.1 |
| 20260904215313 | 97 | 167 | 3.5 | 7.8 | 0.00 | 0.00 | 0.00 | 60 | 1014.1 |
| 20260904214353 | 99 | 206 | 2.6 | 7.0 | 0.00 | 0.00 | 0.00 | 60 | 1014.1 |
| 20260904213326 | 100 | 227 | 3.5 | 6.1 | 0.00 | 0.00 | 0.00 | 59 | 1014.1 |
| 20260904212322 | 100 | 148 | 3.5 | 7.8 | 0.00 | 0.00 | 0.00 | 58 | 1014.1 |
| 20260904211324 | 101 | 145 | 3.5 | 8.7 | 0.00 | 0.00 | 0.00 | 58 | 1013.8 |
| 20260904210320 | 101 | 183 | 4.3 | 7.0 | 0.00 | 0.00 | 0.00 | 58 | 1013.6 |
| 20260904205311 | 101 | 171 | 3.5 | 7.0 | 0.00 | 0.00 | 0.00 | 58 | 1013.6 |
| 20260904204309 | 100 | 207 | 4.3 | 7.8 | 0.00 | 0.00 | 0.00 | 59 | 1013.9 |
| 20260904203320 | 100 | 148 | 3.5 | 10.4 | 0.00 | 0.00 | 0.00 | 58 | 1014.1 |
| 20260904202317 | 100 | 63 | 3.5 | 7.0 | 0.00 | 0.00 | 0.00 | 59 | 1014.3 |
| 20260904201312 | 100 | 164 | 3.5 | 7.8 | 0.00 | 0.00 | 0.00 | 60 | 1014.4 |
| 20260904200331 | 100 | 196 | 4.3 | 8.7 | 0.00 | 0.00 | 0.00 | 59 | 1014.6 |
| 20260904195324 | 101 | 171 | 4.3 | 7.8 | 0.00 | 0.00 | 0.00 | 57 | 1014.8 |
| 20260904194326 | 101 | 207 | 5.2 | 7.8 | 0.00 | 0.00 | 0.00 | 59 | 1014.9 |
| 20260904193316 | 100 | 324 | 2.6 | 8.7 | 0.00 | 0.00 | 0.00 | 59 | 1015.2 |
| 20260904192335 | 99 | 103 | 2.6 | 7.0 | 0.00 | 0.00 | 0.00 | 62 | 1015.5 |
| 20260904191309 | 99 | 230 | 2.6 | 8.7 | 0.00 | 0.00 | 0.00 | 60 | 1015.6 |
| 20260904190330 | 99 | 257 | 2.6 | 8.7 | 0.00 | 0.00 | 0.00 | 60 | 1015.6 |
| 20260904185320 | 99 | 178 | 3.5 | 6.1 | 0.00 | 0.00 | 0.00 | 59 | 1015.9 |
| 20260904184316 | 99 | 234 | 4.3 | 7.0 | 0.00 | 0.00 | 0.00 | 61 | 1016.0 |
| 20260904183313 | 99 | 285 | 4.3 | 7.0 | 0.00 | 0.00 | 0.00 | 61 | 1016.2 |
| 20260904182325 | 99 | 225 | 2.6 | 7.0 | 0.00 | 0.00 | 0.00 | 59 | 1016.3 |
| 20260904181329 | 100 | 199 | 4.3 | 7.0 | 0.00 | 0.00 | 0.00 | 59 | 1016.4 |
| 20260904180318 | 100 | 86 | 2.6 | 5.2 | 0.00 | 0.00 | 0.00 | 61 | 1016.5 |
| 20260904175334 | 99 | 108 | 3.5 | 6.1 | 0.00 | 0.00 | 0.00 | 60 | 1016.7 |
| 20260904174325 | 98 | 169 | 2.6 | 7.0 | 0.00 | 0.00 | 0.00 | 62 | 1016.8 |
| 20260904173318 | 97 | 158 | 4.3 | 9.6 | 0.00 | 0.00 | 0.00 | 62 | 1016.9 |
| 20260904172343 | 97 | 232 | 4.3 | 6.1 | 0.00 | 0.00 | 0.00 | 61 | 1017.0 |
| 20260904171346 | 97 | 267 | 2.6 | 8.7 | 0.00 | 0.00 | 0.00 | 63 | 1017.1 |
| 20260904170319 | 97 | 185 | 3.5 | 7.0 | 0.00 | 0.00 | 0.00 | 62 | 1017.2 |
| 20260904165316 | 97 | 246 | 3.5 | 7.0 | 0.00 | 0.00 | 0.00 | 64 | 1017.2 |
| 20260904164352 | 96 | 261 | 2.6 | 7.0 | 0.00 | 0.00 | 0.00 | 64 | 1017.2 |
| 20260904163324 | 96 | 111 | 2.6 | 6.1 | 0.00 | 0.00 | 0.00 | 63 | 1017.3 |
| 20260904162319 | 96 | 197 | 3.5 | 7.0 | 0.00 | 0.00 | 0.00 | 63 | 1017.4 |
| 20260904161321 | 95 | 158 | 5.2 | 9.6 | 0.00 | 0.00 | 0.00 | 65 | 1017.4 |
| 20260904160315 | 95 | 219 | 5.2 | 7.8 | 0.00 | 0.00 | 0.00 | 66 | 1017.3 |
| 20260904155316 | 95 | 181 | 4.3 | 7.8 | 0.00 | 0.00 | 0.00 | 66 | 1017.5 |
| 20260904154323 | 94 | 175 | 4.3 | 8.7 | 0.00 | 0.00 | 0.00 | 68 | 1017.6 |
| 20260904153319 | 93 | 254 | 2.6 | 8.7 | 0.00 | 0.00 | 0.00 | 70 | 1017.7 |
| 20260904152314 | 93 | 186 | 3.5 | 7.8 | 0.00 | 0.00 | 0.00 | 70 | 1017.9 |
| 20260904151334 | 92 | 186 | 2.6 | 8.7 | 0.00 | 0.00 | 0.00 | 70 | 1018.0 |
| 20260904150327 | 92 | 190 | 3.5 | 7.8 | 0.00 | 0.00 | 0.00 | 71 | 1018.1 |
| 20260904145318 | 92 | 63 | 3.5 | 7.8 | 0.00 | 0.00 | 0.00 | 71 | 1018.1 |
| 20260904144316 | 91 | 209 | 2.6 | 4.3 | 0.00 | 0.00 | 0.00 | 73 | 1018.1 |
| 20260904143328 | 90 | 229 | 3.5 | 7.0 | 0.00 | 0.00 | 0.00 | 75 | 1018.0 |
| 20260904142324 | 89 | 231 | 4.3 | 7.8 | 0.00 | 0.00 | 0.00 | 75 | 1017.8 |
| 20260904141313 | 89 | 201 | 4.3 | 7.0 | 0.00 | 0.00 | 0.00 | 76 | 1017.8 |
| 20260904140357 | 88 | 244 | 3.5 | 7.0 | 0.00 | 0.00 | 0.00 | 76 | 1017.7 |
| 20260904135325 | 88 | 192 | 2.6 | 7.8 | 0.00 | 0.00 | 0.00 | 78 | 1017.8 |
| 20260904134343 | 87 | 252 | 3.5 | 8.7 | 0.00 | 0.00 | 0.00 | 79 | 1017.7 |
| 20260904133316 | 86 | 171 | 2.6 | 7.8 | 0.00 | 0.00 | 0.00 | 79 | 1017.6 |
| 20260904132335 | 86 | 202 | 4.3 | 7.0 | 0.00 | 0.00 | 0.00 | 82 | 1017.6 |
| 20260904131325 | 85 | 217 | 5.2 | 11.3 | 0.00 | 0.00 | 0.00 | 83 | 1017.7 |
| 20260904130315 | 84 | 202 | 4.3 | 7.8 | 0.00 | 0.00 | 0.00 | 85 | 1017.7 |
| 20260904125315 | 83 | 218 | 4.3 | 7.8 | 0.00 | 0.00 | 0.00 | 87 | 1017.7 |
| 20260904124312 | 83 | 218 | 3.5 | 7.0 | 0.00 | 0.00 | 0.00 | 89 | 1017.7 |
| 20260904123334 | 82 | 245 | 1.7 | 8.7 | 0.00 | 0.00 | 0.00 | 90 | 1017.8 |
| 20260904122328 | 81 | 256 | 3.5 | 6.1 | 0.00 | 0.00 | 0.00 | 91 | 1017.9 |
| 20260904121330 | 81 | 205 | 5.2 | 7.8 | 0.00 | 0.00 | 0.00 | 92 | 1018.0 |
| 20260904120323 | 80 | 229 | 3.5 | 5.2 | 0.00 | 0.00 | 0.00 | 92 | 1017.9 |
| 20260904115325 | 80 | 249 | 2.6 | 6.1 | 0.00 | 0.00 | 0.00 | 93 | 1017.8 |
| 20260904114319 | 80 | 197 | 2.6 | 4.3 | 0.00 | 0.00 | 0.00 | 93 | 1017.8 |
| 20260904113316 | 79 | 244 | 2.6 | 5.2 | 0.00 | 0.00 | 0.00 | 93 | 1017.8 |
| 20260904112317 | 79 | 180 | 1.7 | 3.5 | 0.00 | 0.00 | 0.00 | 93 | 1017.7 |
| 20260904111313 | 79 | 200 | 0.9 | 3.5 | 0.00 | 0.00 | 0.00 | 93 | 1017.7 |
| 20260904110334 | 79 | 180 | 1.7 | 4.3 | 0.00 | 0.00 | 0.00 | 93 | 1017.6 |
| 20260904105330 | 79 | 152 | 1.7 | 3.5 | 0.00 | 0.00 | 0.00 | 93 | 1017.6 |
| 20260904104309 | 79 | 205 | 1.7 | 3.5 | 0.00 | 0.00 | 0.00 | 92 | 1017.5 |
| 20260904103327 | 80 | 218 | 1.7 | 3.5 | 0.00 | 0.00 | 0.00 | 92 | 1017.3 |
| 20260904102330 | 79 | 227 | 1.7 | 3.5 | 0.00 | 0.00 | 0.00 | 92 | 1017.2 |
| 20260904101324 | 80 | 257 | 1.7 | 3.5 | 0.00 | 0.00 | 0.00 | 92 | 1017.1 |
| 20260904100319 | 80 | 184 | 1.7 | 3.5 | 0.00 | 0.00 | 0.00 | 92 | 1017.1 |
| 20260904095318 | 80 | 203 | 1.7 | 3.5 | 0.00 | 0.00 | 0.00 | 92 | 1017.1 |
| 20260904094313 | 80 | 160 | 1.7 | 3.5 | 0.00 | 0.00 | 0.00 | 92 | 1017.0 |
| 20260904093316 | 80 | 211 | 1.7 | 3.5 | 0.00 | 0.00 | 0.00 | 92 | 1017.0 |
| 20260904092328 | 80 | 207 | 1.7 | 3.5 | 0.00 | 0.00 | 0.00 | 91 | 1017.0 |
| 20260904091329 | 80 | 168 | 2.6 | 5.2 | 0.00 | 0.00 | 0.00 | 91 | 1016.9 |
| 20260904090327 | 80 | 207 | 1.7 | 4.3 | 0.00 | 0.00 | 0.00 | 91 | 1016.8 |
| 20260904085348 | 80 | 137 | 1.7 | 4.3 | 0.00 | 0.00 | 0.00 | 91 | 1016.7 |
| 20260904084343 | 80 | 215 | 3.5 | 5.2 | 0.00 | 0.00 | 0.00 | 91 | 1016.8 |
| 20260904083343 | 80 | 205 | 1.7 | 4.3 | 0.00 | 0.00 | 0.00 | 90 | 1016.8 |
| 20260904082318 | 81 | 207 | 2.6 | 5.2 | 0.00 | 0.00 | 0.00 | 90 | 1016.8 |
| 20260904081319 | 81 | 219 | 2.6 | 6.1 | 0.00 | 0.00 | 0.00 | 90 | 1016.8 |
| 20260904080313 | 81 | 175 | 2.6 | 5.2 | 0.00 | 0.00 | 0.00 | 90 | 1016.6 |
| 20260904075334 | 81 | 222 | 3.5 | 4.3 | 0.00 | 0.00 | 0.00 | 90 | 1016.7 |
| 20260904074328 | 81 | 207 | 2.6 | 5.2 | 0.00 | 0.00 | 0.00 | 90 | 1016.7 |
| 20260904073325 | 81 | 179 | 2.6 | 4.3 | 0.00 | 0.00 | 0.00 | 89 | 1016.8 |
| 20260904072339 | 81 | 212 | 2.6 | 7.0 | 0.00 | 0.00 | 0.00 | 89 | 1016.9 |
| 20260904071337 | 81 | 211 | 0.9 | 4.3 | 0.00 | 0.00 | 0.00 | 89 | 1016.9 |
| 20260904070310 | 81 | 234 | 1.7 | 7.0 | 0.00 | 0.00 | 0.00 | 89 | 1017.0 |
| 20260904065332 | 81 | 223 | 2.6 | 5.2 | 0.00 | 0.00 | 0.00 | 88 | 1017.0 |
| 20260904064332 | 82 | 192 | 2.6 | 8.7 | 0.00 | 0.00 | 0.00 | 88 | 1017.1 |
| 20260904063343 | 82 | 209 | 1.7 | 4.3 | 0.00 | 0.00 | 0.00 | 88 | 1017.3 |
| 20260904062318 | 82 | 161 | 1.7 | 5.2 | 0.00 | 0.00 | 0.00 | 87 | 1017.6 |
| 20260904061328 | 82 | 195 | 1.7 | 5.2 | 0.00 | 0.00 | 0.00 | 87 | 1017.5 |
| 20260904060328 | 82 | 155 | 1.7 | 5.2 | 0.00 | 0.00 | 0.00 | 87 | 1017.5 |
| 20260904055320 | 82 | 218 | 2.6 | 5.2 | 0.00 | 0.00 | 0.00 | 86 | 1017.7 |
| 20260904054324 | 82 | 188 | 2.6 | 7.0 | 0.00 | 0.00 | 0.00 | 86 | 1017.7 |
| 20260904053322 | 82 | 229 | 2.6 | 6.1 | 0.00 | 0.00 | 0.00 | 86 | 1017.7 |
| 20260904052316 | 83 | 200 | 2.6 | 5.2 | 0.00 | 0.00 | 0.00 | 85 | 1017.9 |
| 20260904051316 | 83 | 230 | 1.7 | 4.3 | 0.00 | 0.00 | 0.00 | 85 | 1017.8 |
| 20260904050355 | 83 | 178 | 2.6 | 6.1 | 0.00 | 0.00 | 0.00 | 84 | 1017.9 |
| 20260904045310 | 83 | 138 | 2.6 | 6.1 | 0.00 | 0.00 | 0.00 | 84 | 1017.9 |
| 20260904044322 | 83 | 113 | 3.5 | 8.7 | 0.00 | 0.00 | 0.00 | 83 | 1018.0 |
| 20260904043324 | 83 | 140 | 2.6 | 6.1 | 0.00 | 0.00 | 0.00 | 83 | 1018.0 |
| 20260904042316 | 84 | 138 | 2.6 | 6.1 | 0.00 | 0.00 | 0.00 | 82 | 1017.9 |
| 20260904041310 | 84 | 226 | 2.6 | 7.8 | 0.00 | 0.00 | 0.00 | 81 | 1017.9 |
| 20260904040357 | 84 | 137 | 1.7 | 6.1 | 0.00 | 0.00 | 0.00 | 81 | 1017.9 |
| 20260904035328 | 84 | 159 | 2.6 | 6.1 | 0.00 | 0.00 | 0.00 | 80 | 1017.9 |
| 20260904034323 | 84 | 121 | 2.6 | 4.3 | 0.00 | 0.00 | 0.00 | 79 | 1018.0 |
| 20260904033326 | 85 | 123 | 2.6 | 6.1 | 0.00 | 0.00 | 0.00 | 79 | 1018.1 |
| 20260904032321 | 85 | 150 | 2.6 | 6.1 | 0.00 | 0.00 | 0.00 | 78 | 1018.0 |
| 20260904031317 | 85 | 221 | 2.6 | 7.0 | 0.00 | 0.00 | 0.00 | 77 | 1018.1 |
| 20260904030319 | 85 | 155 | 3.5 | 6.1 | 0.00 | 0.00 | 0.00 | 76 | 1018.1 |
| 20260904025335 | 86 | 111 | 2.6 | 7.8 | 0.00 | 0.00 | 0.00 | 76 | 1018.2 |
| 20260904024321 | 86 | 149 | 2.6 | 8.7 | 0.00 | 0.00 | 0.00 | 75 | 1018.2 |
| 20260904023317 | 86 | 150 | 3.5 | 7.0 | 0.00 | 0.00 | 0.00 | 74 | 1018.1 |
| 20260904022314 | 86 | 119 | 3.5 | 7.0 | 0.00 | 0.00 | 0.00 | 73 | 1018.1 |
| 20260904021316 | 87 | 132 | 2.6 | 4.3 | 0.00 | 0.00 | 0.00 | 73 | 1018.3 |
| 20260904020312 | 87 | 144 | 3.5 | 6.1 | 0.00 | 0.00 | 0.00 | 72 | 1018.2 |
| 20260904015336 | 87 | 122 | 2.6 | 8.7 | 0.00 | 0.00 | 0.00 | 71 | 1018.0 |
| 20260904014309 | 88 | 150 | 3.5 | 7.8 | 0.00 | 0.00 | 0.00 | 71 | 1017.9 |
| 20260904013333 | 88 | 150 | 4.3 | 10.4 | 0.00 | 0.00 | 0.00 | 70 | 1017.7 |
| 20260904012329 | 88 | 236 | 2.6 | 7.8 | 0.00 | 0.00 | 0.00 | 70 | 1017.6 |
| 20260904011332 | 89 | 183 | 2.6 | 7.0 | 0.00 | 0.00 | 0.00 | 70 | 1017.5 |
| 20260904010326 | 89 | 143 | 3.5 | 7.0 | 0.00 | 0.00 | 0.00 | 70 | 1017.2 |